When you browse on this site, cookies collect data to enhance your experience and personalize the content and advertising you see.
Visit our Privacy Policy to learn more. By continuing to use the site, you agree to this use of cookies and data.
  • In Czech Republic
  • List of Countries
  • For 7 days
  • Water Temperature
  • Weather Map
  • Weather Widgets
  • user-avatar
    Login

    Hourly Weather Canberra

    Today, 15 November, Friday

    Time Temperature Precipitation Wind Pressure Humidity
    00:00 +9°C° 0 mm 2 mps 705 mmHg 83%
    01:00 +9°C° 0 mm 2 mps 705 mmHg 86%
    02:00 +8°C° 0 mm 2 mps 705 mmHg 86%
    03:00 +8°C° 0 mm 2 mps 704 mmHg 86%
    04:00 +8°C° 0 mm 2 mps 704 mmHg 87%
    05:00 +10°C° 0 mm 2 mps 704 mmHg 78%
    06:00 +12°C° 0 mm 3 mps 705 mmHg 70%
    07:00 +13°C° 0 mm 4 mps 705 mmHg 61%
    08:00 +16°C° 0 mm 5 mps 705 mmHg 53%
    09:00 +19°C° 0 mm 6 mps 705 mmHg 44%
    10:00 +21°C° 0 mm 8 mps 705 mmHg 36%
    11:00 +22°C° 0 mm 8 mps 705 mmHg 33%
    12:00 +23°C° 0 mm 7 mps 705 mmHg 31%
    13:00 +24°C° 0 mm 7 mps 704 mmHg 29%
    14:00 +23°C° 0 mm 7 mps 704 mmHg 29%
    15:00 +23°C° 0 mm 7 mps 704 mmHg 30%
    16:00 +22°C° 0 mm 7 mps 704 mmHg 30%
    17:00 +20°C° 0 mm 6 mps 704 mmHg 38%
    18:00 +17°C° 0 mm 4 mps 705 mmHg 46%
    19:00 +14°C° 0 mm 3 mps 705 mmHg 54%
    20:00 +14°C° 0 mm 2 mps 706 mmHg 60%
    21:00 +12°C° 0 mm 1 mps 706 mmHg 66%
    22:00 +11°C° 0 mm 1 mps 706 mmHg 72%
    23:00 +10°C° 0 mm 1 mps 706 mmHg 76%

    Tomorrow, 16 November, Saturday

    Time Temperature Precipitation Wind Pressure Humidity
    00:00 +9°C° 0 mm 1 mps 706 mmHg 81%
    01:00 +9°C° 0 mm 1 mps 706 mmHg 85%
    02:00 +7°C° 0 mm 0 mps 706 mmHg 87%
    03:00 +6°C° 0 mm 0 mps 706 mmHg 89%
    04:00 +5°C° 0 mm 0 mps 706 mmHg 91%
    05:00 +7°C° 0 mm 0 mps 707 mmHg 82%
    06:00 +11°C° 0 mm 1 mps 708 mmHg 73%
    07:00 +13°C° 0 mm 1 mps 708 mmHg 64%
    08:00 +15°C° 0 mm 1 mps 709 mmHg 52%
    09:00 +18°C° 0 mm 2 mps 709 mmHg 40%
    10:00 +20°C° 0 mm 3 mps 709 mmHg 28%
    11:00 +21°C° 0 mm 4 mps 709 mmHg 24%
    12:00 +22°C° 0 mm 4 mps 709 mmHg 20%
    13:00 +23°C° 0 mm 5 mps 708 mmHg 17%
    14:00 +23°C° 0 mm 5 mps 708 mmHg 17%
    15:00 +22°C° 0 mm 5 mps 708 mmHg 18%
    16:00 +22°C° 0 mm 5 mps 707 mmHg 19%
    17:00 +19°C° 0 mm 4 mps 708 mmHg 26%
    18:00 +17°C° 0 mm 3 mps 708 mmHg 32%
    19:00 +15°C° 0 mm 2 mps 708 mmHg 39%
    20:00 +13°C° 0 mm 2 mps 708 mmHg 49%
    21:00 +12°C° 0 mm 1 mps 709 mmHg 60%
    22:00 +10°C° 0 mm 1 mps 709 mmHg 71%
    23:00 +10°C° 0 mm 1 mps 708 mmHg 77%

    Day after tomorrow, 17 November, Sunday

    Time Temperature Precipitation Wind Pressure Humidity
    00:00 +9°C° 0 mm 1 mps 708 mmHg 84%
    01:00 +8°C° 0 mm 1 mps 708 mmHg 90%
    02:00 +8°C° 0 mm 1 mps 708 mmHg 90%
    03:00 +9°C° 0 mm 1 mps 708 mmHg 91%
    04:00 +8°C° 0 mm 0 mps 708 mmHg 91%
    05:00 +9°C° 0 mm 0 mps 708 mmHg 85%
    06:00 +11°C° 0 mm 0 mps 709 mmHg 78%
    07:00 +14°C° 0 mm 1 mps 709 mmHg 72%
    08:00 +16°C° 0 mm 1 mps 709 mmHg 59%
    09:00 +19°C° 0 mm 1 mps 710 mmHg 45%
    10:00 +21°C° 0 mm 2 mps 710 mmHg 32%
    11:00 +23°C° 0 mm 2 mps 710 mmHg 28%
    12:00 +24°C° 0 mm 2 mps 709 mmHg 24%
    13:00 +25°C° 0 mm 3 mps 709 mmHg 20%
    14:00 +24°C° 0 mm 3 mps 709 mmHg 24%
    15:00 +22°C° 0 mm 3 mps 709 mmHg 27%
    16:00 +22°C° 0 mm 4 mps 709 mmHg 31%
    17:00 +19°C° 0 mm 4 mps 709 mmHg 47%
    18:00 +14°C° 0 mm 4 mps 709 mmHg 63%
    19:00 +11°C° 0 mm 4 mps 710 mmHg 79%
    20:00 +10°C° 0 mm 3 mps 710 mmHg 83%
    21:00 +10°C° 0 mm 2 mps 710 mmHg 86%
    22:00 +9°C° 0 mm 2 mps 711 mmHg 89%
    23:00 +10°C° 0 mm 1 mps 710 mmHg 90%

    18 November, Monday

    Time Temperature Precipitation Wind Pressure Humidity
    00:00 +10°C° 0 mm 1 mps 710 mmHg 90%
    01:00 +9°C° 0 mm 1 mps 710 mmHg 91%
    02:00 +10°C° 0 mm 1 mps 710 mmHg 91%
    03:00 +10°C° 0 mm 1 mps 710 mmHg 90%
    04:00 +10°C° 0 mm 1 mps 710 mmHg 90%
    05:00 +11°C° 0 mm 1 mps 710 mmHg 85%
    06:00 +12°C° 0 mm 1 mps 710 mmHg 79%
    07:00 +13°C° 0 mm 2 mps 710 mmHg 73%
    08:00 +16°C° 0 mm 2 mps 710 mmHg 60%
    09:00 +18°C° 0 mm 3 mps 710 mmHg 46%
    10:00 +21°C° 0 mm 4 mps 710 mmHg 32%
    11:00 +23°C° 0 mm 5 mps 709 mmHg 29%
    12:00 +25°C° 0 mm 5 mps 709 mmHg 26%
    13:00 +26°C° 0 mm 6 mps 708 mmHg 22%
    14:00 +26°C° 0 mm 6 mps 708 mmHg 24%
    15:00 +26°C° 0 mm 5 mps 707 mmHg 26%
    16:00 +26°C° 0 mm 5 mps 707 mmHg 27%
    17:00 +23°C° 0 mm 5 mps 707 mmHg 34%
    18:00 +20°C° 0 mm 4 mps 707 mmHg 40%
    19:00 +18°C° 0 mm 3 mps 707 mmHg 46%
    20:00 +16°C° 0 mm 3 mps 707 mmHg 51%
    21:00 +15°C° 0 mm 2 mps 707 mmHg 56%
    22:00 +13°C° 0 mm 1 mps 707 mmHg 61%
    23:00 +12°C° 0 mm 1 mps 706 mmHg 62%

    19 November, Tuesday

    Time Temperature Precipitation Wind Pressure Humidity
    00:00 +12°C° 0 mm 1 mps 706 mmHg 64%
    01:00 +11°C° 0 mm 1 mps 705 mmHg 66%
    02:00 +11°C° 0 mm 1 mps 705 mmHg 68%
    03:00 +10°C° 0 mm 1 mps 705 mmHg 69%
    04:00 +10°C° 0 mm 1 mps 704 mmHg 71%
    05:00 +13°C° 0 mm 1 mps 705 mmHg 62%
    06:00 +15°C° 0 mm 2 mps 705 mmHg 52%
    07:00 +18°C° 0 mm 3 mps 706 mmHg 42%
    08:00 +21°C° 0 mm 4 mps 706 mmHg 36%
    09:00 +25°C° 0 mm 5 mps 706 mmHg 29%
    10:00 +27°C° 0 mm 7 mps 706 mmHg 23%
    11:00 +28°C° 0 mm 7 mps 706 mmHg 21%
    12:00 +30°C° 0 mm 7 mps 706 mmHg 18%
    13:00 +32°C° 0 mm 6 mps 705 mmHg 16%
    14:00 +30°C° 0 mm 6 mps 706 mmHg 17%
    15:00 +30°C° 0 mm 6 mps 706 mmHg 18%
    16:00 +29°C° 0 mm 5 mps 706 mmHg 20%
    17:00 +26°C° 0 mm 4 mps 706 mmHg 29%
    18:00 +22°C° 0 mm 3 mps 707 mmHg 38%
    19:00 +19°C° 0 mm 2 mps 707 mmHg 47%
    20:00 +17°C° 0 mm 2 mps 707 mmHg 62%
    21:00 +14°C° 0 mm 2 mps 708 mmHg 77%
    22:00 +12°C° 0 mm 2 mps 708 mmHg 92%
    23:00 +12°C° 0 mm 2 mps 708 mmHg 91%

    20 November, Wednesday

    Time Temperature Precipitation Wind Pressure Humidity
    00:00 +10°C° 0 mm 2 mps 708 mmHg 91%
    01:00 +11°C° 0 mm 1 mps 708 mmHg 91%
    02:00 +12°C° 0 mm 1 mps 708 mmHg 89%
    03:00 +12°C° 0 mm 1 mps 708 mmHg 88%
    04:00 +12°C° 0 mm 1 mps 708 mmHg 86%
    05:00 +13°C° 0 mm 1 mps 709 mmHg 81%
    06:00 +14°C° 0 mm 1 mps 709 mmHg 77%
    07:00 +14°C° 0 mm 1 mps 709 mmHg 72%
    08:00 +18°C° 0 mm 1 mps 710 mmHg 60%
    09:00 +22°C° 0 mm 1 mps 710 mmHg 49%
    10:00 +25°C° 0 mm 1 mps 710 mmHg 37%
    11:00 +26°C° 0 mm 1 mps 710 mmHg 32%
    12:00 +28°C° 0 mm 1 mps 710 mmHg 26%
    13:00 +30°C° 0 mm 2 mps 710 mmHg 21%
    14:00 +30°C° 0 mm 2 mps 710 mmHg 20%
    15:00 +31°C° 0 mm 2 mps 710 mmHg 20%
    16:00 +31°C° 0 mm 2 mps 709 mmHg 19%
    17:00 +27°C° 0 mm 3 mps 710 mmHg 32%
    18:00 +22°C° 0 mm 3 mps 710 mmHg 44%
    19:00 +19°C° 0 mm 3 mps 710 mmHg 57%
    20:00 +17°C° 0 mm 3 mps 710 mmHg 67%
    21:00 +15°C° 0 mm 2 mps 711 mmHg 77%
    22:00 +13°C° 0 mm 2 mps 711 mmHg 87%
    23:00 +12°C° 0 mm 1 mps 711 mmHg 89%
    Show more